Terug naar catalogus

STARLINK-32603

ActiefCommunicatieVLEO
NORAD 62072·PAYLOAD·🇺🇸 United States

Gelanceerd Nov 24, 2024 vanaf Vandenberg Space Force Base

Loading…

Volgende Passages (komende 24 uur)

TLE

VersSource: CelesTrak SupGP

Epoch: Sep 15, 2026, 02:41 UTC

1 62072C 24217R   26258.11229167  .00013439  00000+0  39711-3 0  2586
2 62072  53.1601  30.8426 0001242  86.4741  69.2082 15.34379433    17

Volg STARLINK-32603 in realtime met AllMySat

Download on the App Store